Search for airport 
image banner adimage banner adimage banner ad
image banner ad

PS91 - Conemaugh Valley Memorial Hospital

Located in Johnstown, United States

ICAO - PS91, IATA -

Data provided by Airmate  

General information

Coordinates: N40°18'20" W78°55'5"
Elevation is 1250 feet MSL.
Magnetic variation is -08° East
View others Airports in Pennsylvania

Operational data

Special qualification required
Current time UTC:
Current local time:
METAR: KJST 150541Z AUTO 29007KT 5SM BR FEW005 14/13 A2988 RMK AO2 T01440128
TAF: KJST 150404Z 1504/1524 28007KT P6SM SKC TEMPO 1508/1512 5SM BR SCT015 FM151200 30009KT P6SM BKN015 FM151400 31012G19KT P6SM BKN050
View NOTAMs / SUP AIP / TFR affecting this airport [VIEW]
Communications frequencies: [VIEW]

Runways:

Airport contact information

Address: Johnstown United States

Satellite view of PS91